This demonstration page uses our WeatherBlox Daily Observations layout. Learn more.

36.17497, -115.13722

Hourly Observations for January 31, 2020

Temp ( °F °C ) Dew Point ( °F °C ) Humidity (%) Winds ( mph kmh ) Pressure ( in mb ) Visibility ( mi km ) Precip ( " mm )
12:53 am 00:53 Clear 46 7.8 26 -3.3 46 46 NW 5 7 30.33 1027 10 16.0934 0 0
1:53 am 01:53 Clear 48 8.9 26 -3.3 42 42 WNW 6 9 30.34 1028 10 16.0934 0 0
2:53 am 02:53 Clear 45 7.2 26 -3.3 48 48 WSW 3 6 30.35 1028 10 16.0934 0 0
3:53 am 03:53 Clear 44 6.7 26 -3.3 49 49 VRB 6 9 30.37 1029 10 16.0934 0 0
4:53 am 04:53 Clear 44 6.7 26 -3.3 49 49 SSW 3 6 30.39 1029 10 16.0934 0 0
5:53 am 05:53 Clear 42 5.6 26 -3.3 53 53 WNW 3 6 30.41 1030 10 16.0934 0 0
6:53 am 06:53 Sunny 42 5.6 26 -3.3 53 53 W 7 11 30.44 1031 10 16.0934 0 0
7:53 am 07:53 Sunny 47 8.3 27 -2.8 46 46 Calm 30.45 1031 10 16.0934 0 0
8:53 am 08:53 Sunny 51 10.6 28 -2.2 41 41 Calm 30.48 1032 10 16.0934 0 0
9:53 am 09:53 Sunny 55 12.8 26 -3.3 33 33 Calm 30.46 1032 10 16.0934 0 0
10:53 am 10:53 Sunny 57 13.9 26 -3.3 30 30 VRB 3 6 30.46 1031 10 16.0934 0 0
11:53 am 11:53 Sunny 60 15.6 26 -3.3 27 27 ENE 5 7 30.42 1030 10 16.0934 0 0
12:53 pm 12:53 Sunny 61 16.1 27 -2.8 27 27 ESE 5 7 30.39 1029 10 16.0934 0 0
1:53 pm 13:53 Sunny 62 16.7 26 -3.3 25 25 VRB 3 6 30.36 1028 10 16.0934 0 0
2:53 pm 14:53 Sunny 64 17.8 26 -3.3 24 24 ESE 7 11 30.35 1028 10 16.0934 0 0
3:53 pm 15:53 Sunny 65 18.3 25 -3.9 22 22 Calm 30.35 1028 10 16.0934 0 0
4:53 pm 16:53 Sunny 61 16.1 24 -4.4 24 24 Calm 30.37 1028 10 16.0934 0 0
5:53 pm 17:53 Clear 60 15.6 24 -4.4 25 25 Calm 30.38 1029 10 16.0934 0 0
6:53 pm 18:53 Clear 57 13.9 25 -3.9 29 29 Calm 30.4 1029 10 16.0934 0 0
7:53 pm 19:53 Clear 56 13.3 28 -2.2 34 34 W 3 6 30.4 1029 10 16.0934 0 0
8:53 pm 20:53 Clear 50 10 28 -2.2 43 43 NW 5 7 30.41 1030 10 16.0934 0 0
9:53 pm 21:53 Clear 50 10 28 -2.2 43 43 WNW 5 7 30.42 1030 10 16.0934 0 0
10:53 pm 22:53 Clear 48 8.9 28 -2.2 46 46 NW 3 6 30.42 1030 10 16.0934 0 0
11:53 pm 23:53 Clear 47 8.3 28 -2.2 48 48 W 5 7 30.42 1030 10 16.0934 0 0

Powered by AerisWeather